Time,TemperatureF,DewpointF,PressureIn,WindDirection,WindDirectionDegrees,WindSpeedMPH,WindSpeedGustMPH,Humidity,HourlyPrecipIn,Conditions,Clouds,dailyrainin,SolarRadiationWatts/m^2,SoftwareType,DateUTC
2013-01-16 00:04:00,35.1,23.0,30.63,North,360,17.3,17.3,61,0.00,CLR,,0.00,0.0,WeatherDisplay:10.37,2013-01-16 08:04:00,
2013-01-16 00:09:00,34.9,22.8,30.63,North,360,16.1,16.1,61,0.00,CLR,,0.00,0.0,WeatherDisplay:10.37,2013-01-16 08:09:00,
2013-01-16 00:14:00,34.8,22.7,30.63,North,360,17.3,17.3,61,0.00,CLR,,0.00,0.0,WeatherDisplay:10.37,2013-01-16 08:14:00,
2013-01-16 00:19:00,34.8,22.7,30.63,North,360,20.0,20.0,61,0.00,CLR,,0.00,0.0,WeatherDisplay:10.37,2013-01-16 08:19:00,
2013-01-16 00:24:00,34.7,22.6,30.64,North,360,15.0,15.0,61,0.00,CLR,,0.00,0.0,WeatherDisplay:10.37,2013-01-16 08:24:00,
2013-01-16 00:29:00,34.5,22.8,30.64,North,360,19.6,19.6,62,0.00,CLR,,0.00,0.0,WeatherDisplay:10.37,2013-01-16 08:29:00,
2013-01-16 00:34:00,34.4,22.7,30.63,North,360,17.3,17.3,62,0.00,CLR,,0.00,0.0,WeatherDisplay:10.37,2013-01-16 08:34:00,
2013-01-16 00:39:00,34.3,22.6,30.64,North,360,16.1,16.1,62,0.00,CLR,,0.00,0.0,WeatherDisplay:10.37,2013-01-16 08:39:00,
2013-01-16 00:44:00,34.2,22.5,30.63,North,360,16.1,16.1,62,0.00,CLR,,0.00,0.0,WeatherDisplay:10.37,2013-01-16 08:44:00,
2013-01-16 00:49:00,34.2,22.9,30.64,North,360,18.0,18.0,63,0.00,CLR,,0.00,0.0,WeatherDisplay:10.37,2013-01-16 08:49:00,
2013-01-16 00:54:00,34.2,22.9,30.64,North,360,12.7,12.7,63,0.00,CLR,,0.00,0.0,WeatherDisplay:10.37,2013-01-16 08:54:00,
2013-01-16 00:59:00,34.3,23.0,30.64,North,360,15.0,15.0,63,0.00,CLR,,0.00,0.0,WeatherDisplay:10.37,2013-01-16 08:59:00,
2013-01-16 01:04:00,34.4,23.5,30.64,North,360,18.4,18.4,64,0.00,CLR,,0.00,0.0,WeatherDisplay:10.37,2013-01-16 09:04:00,
2013-01-16 01:09:00,34.4,23.5,30.64,North,360,18.0,18.0,64,0.00,CLR,,0.00,0.0,WeatherDisplay:10.37,2013-01-16 09:09:00,
2013-01-16 01:14:00,34.6,23.7,30.64,North,360,15.0,15.0,64,0.00,CLR,,0.00,0.0,WeatherDisplay:10.37,2013-01-16 09:14:00,
2013-01-16 01:19:00,34.8,23.5,30.64,North,360,16.0,16.0,63,0.00,CLR,,0.00,0.0,WeatherDisplay:10.37,2013-01-16 09:19:00,
2013-01-16 01:25:00,34.8,23.1,30.64,North,360,10.0,18.0,62,0.00,CLR,,0.00,0.0,WeatherDisplay:10.37,2013-01-16 09:25:00,
2013-01-16 01:30:00,34.7,23.0,30.64,North,360,12.0,17.0,62,0.00,CLR,,0.00,0.0,WeatherDisplay:10.37,2013-01-16 09:30:00,
2013-01-16 01:35:00,34.8,22.7,30.64,North,360,18.4,18.4,61,0.00,CLR,,0.00,0.0,WeatherDisplay:10.37,2013-01-16 09:35:00,
2013-01-16 01:40:00,34.7,22.6,30.64,North,360,19.6,19.6,61,0.00,CLR,,0.00,0.0,WeatherDisplay:10.37,2013-01-16 09:40:00,
2013-01-16 01:45:00,34.4,22.3,30.64,North,360,15.0,15.0,61,0.00,CLR,,0.00,0.0,WeatherDisplay:10.37,2013-01-16 09:45:00,
2013-01-16 01:50:00,34.3,22.2,30.64,North,360,21.9,21.9,61,0.00,CLR,,0.00,0.0,WeatherDisplay:10.37,2013-01-16 09:50:00,
2013-01-16 01:55:00,34.2,22.1,30.64,North,360,16.1,16.1,61,0.00,CLR,,0.00,0.0,WeatherDisplay:10.37,2013-01-16 09:55:00,
2013-01-16 02:00:00,33.9,21.9,30.64,North,360,15.0,15.0,61,0.00,CLR,,0.00,0.0,WeatherDisplay:10.37,2013-01-16 10:00:00,
2013-01-16 02:05:00,33.6,22.0,30.64,North,360,18.4,18.4,62,0.00,CLR,,0.00,0.0,WeatherDisplay:10.37,2013-01-16 10:05:00,
2013-01-16 02:10:00,33.5,21.9,30.65,North,360,16.1,16.1,62,0.00,CLR,,0.00,0.0,WeatherDisplay:10.37,2013-01-16 10:10:00,
2013-01-16 02:15:00,33.4,21.8,30.64,North,360,19.6,19.6,62,0.00,CLR,,0.00,0.0,WeatherDisplay:10.37,2013-01-16 10:15:00,
2013-01-16 02:20:00,33.3,21.7,30.65,North,360,18.4,18.4,62,0.00,CLR,,0.00,0.0,WeatherDisplay:10.37,2013-01-16 10:20:00,
2013-01-16 02:25:00,33.3,21.7,30.65,North,360,15.0,15.0,62,0.00,CLR,,0.00,0.0,WeatherDisplay:10.37,2013-01-16 10:25:00,
2013-01-16 02:30:00,33.2,22.0,30.65,North,360,16.1,16.1,63,0.00,CLR,,0.00,0.0,WeatherDisplay:10.37,2013-01-16 10:30:00,
2013-01-16 02:35:00,33.0,22.1,30.65,North,360,16.1,16.1,64,0.00,CLR,,0.00,0.0,WeatherDisplay:10.37,2013-01-16 10:35:00,
2013-01-16 02:40:00,32.8,22.3,30.64,North,360,16.1,16.1,65,0.00,CLR,,0.00,0.0,WeatherDisplay:10.37,2013-01-16 10:40:00,
2013-01-16 02:45:00,32.7,22.2,30.64,North,360,16.1,16.1,65,0.00,CLR,,0.00,0.0,WeatherDisplay:10.37,2013-01-16 10:45:00,
2013-01-16 02:50:00,32.5,22.0,30.64,North,360,15.0,15.0,65,0.00,CLR,,0.00,0.0,WeatherDisplay:10.37,2013-01-16 10:50:00,
2013-01-16 02:55:00,32.4,22.3,30.65,North,360,20.0,20.0,66,0.00,CLR,,0.00,0.0,WeatherDisplay:10.37,2013-01-16 10:55:00,
2013-01-16 03:00:00,32.4,22.7,30.64,North,360,15.0,15.0,67,0.00,CLR,,0.00,0.0,WeatherDisplay:10.37,2013-01-16 11:00:00,
2013-01-16 03:05:00,32.3,22.6,30.64,North,360,17.3,17.3,67,0.00,CLR,,0.00,0.0,WeatherDisplay:10.37,2013-01-16 11:05:00,
2013-01-16 03:10:00,32.3,22.6,30.64,North,360,17.0,17.0,67,0.00,CLR,,0.00,0.0,WeatherDisplay:10.37,2013-01-16 11:10:00,
2013-01-16 03:15:00,32.4,21.9,30.64,North,360,16.1,16.1,65,0.00,CLR,,0.00,0.0,WeatherDisplay:10.37,2013-01-16 11:15:00,
2013-01-16 03:20:00,32.5,22.0,30.64,North,360,13.8,13.8,65,0.00,CLR,,0.00,0.0,WeatherDisplay:10.37,2013-01-16 11:20:00,
2013-01-16 03:25:00,32.5,21.7,30.64,North,360,16.0,16.0,64,0.00,CLR,,0.00,0.0,WeatherDisplay:10.37,2013-01-16 11:25:00,
2013-01-16 03:30:00,32.4,21.2,30.64,North,360,17.3,17.3,63,0.00,CLR,,0.00,0.0,WeatherDisplay:10.37,2013-01-16 11:30:00,
2013-01-16 03:35:00,32.4,20.8,30.64,North,360,18.4,18.4,62,0.00,CLR,,0.00,0.0,WeatherDisplay:10.37,2013-01-16 11:35:00,
2013-01-16 03:40:00,32.3,20.7,30.63,North,360,19.6,19.6,62,0.00,CLR,,0.00,0.0,WeatherDisplay:10.37,2013-01-16 11:40:00,
2013-01-16 03:45:00,32.2,20.2,30.63,North,360,17.3,17.3,61,0.00,CLR,,0.00,0.0,WeatherDisplay:10.37,2013-01-16 11:45:00,
2013-01-16 03:50:00,32.2,20.2,30.63,North,360,19.6,19.6,61,0.00,CLR,,0.00,0.0,WeatherDisplay:10.37,2013-01-16 11:50:00,
2013-01-16 03:56:00,32.2,20.2,30.63,North,360,19.6,19.6,61,0.00,CLR,,0.00,0.0,WeatherDisplay:10.37,2013-01-16 11:56:00,
2013-01-16 04:01:00,32.1,20.2,30.63,North,360,16.1,16.1,61,0.00,CLR,,0.00,0.0,WeatherDisplay:10.37,2013-01-16 12:01:00,
2013-01-16 04:06:00,32.0,20.1,30.63,North,360,19.6,19.6,61,0.00,CLR,,0.00,0.0,WeatherDisplay:10.37,2013-01-16 12:06:00,
2013-01-16 04:11:00,32.0,20.1,30.63,North,360,19.6,19.6,61,0.00,CLR,,0.00,0.0,WeatherDisplay:10.37,2013-01-16 12:11:00,
2013-01-16 04:16:00,31.9,20.0,30.62,North,360,18.4,18.4,61,0.00,CLR,,0.00,0.0,WeatherDisplay:10.37,2013-01-16 12:16:00,
2013-01-16 04:21:00,31.9,20.3,30.62,North,360,17.0,17.0,62,0.00,CLR,,0.00,0.0,WeatherDisplay:10.37,2013-01-16 12:21:00,
2013-01-16 04:26:00,31.8,20.3,30.63,North,360,13.8,13.8,62,0.00,CLR,,0.00,0.0,WeatherDisplay:10.37,2013-01-16 12:26:00,
2013-01-16 04:31:00,31.8,20.3,30.62,North,360,17.3,17.3,62,0.00,CLR,,0.00,0.0,WeatherDisplay:10.37,2013-01-16 12:31:00,
2013-01-16 04:36:00,31.8,20.3,30.62,North,360,17.3,17.3,62,0.00,CLR,,0.00,0.0,WeatherDisplay:10.37,2013-01-16 12:36:00,
2013-01-16 04:41:00,31.9,20.7,30.62,North,360,20.0,20.0,63,0.00,CLR,,0.00,0.0,WeatherDisplay:10.37,2013-01-16 12:41:00,
2013-01-16 04:46:00,31.9,20.7,30.62,North,360,21.9,21.9,63,0.00,CLR,,0.00,0.0,WeatherDisplay:10.37,2013-01-16 12:46:00,
2013-01-16 04:51:00,31.8,20.6,30.62,North,360,19.0,19.0,63,0.00,CLR,,0.00,0.0,WeatherDisplay:10.37,2013-01-16 12:51:00,
2013-01-16 04:56:00,31.8,20.6,30.62,North,360,19.6,19.6,63,0.00,CLR,,0.00,0.0,WeatherDisplay:10.37,2013-01-16 12:56:00,
2013-01-16 05:01:00,31.7,20.9,30.62,North,360,18.4,18.4,64,0.00,CLR,,0.00,0.0,WeatherDisplay:10.37,2013-01-16 13:01:00,
2013-01-16 05:06:00,31.6,20.8,30.61,North,360,18.4,18.4,64,0.00,CLR,,0.00,0.0,WeatherDisplay:10.37,2013-01-16 13:06:00,
2013-01-16 05:11:00,31.4,21.0,30.61,North,360,15.0,15.0,65,0.00,CLR,,0.00,0.0,WeatherDisplay:10.37,2013-01-16 13:11:00,
2013-01-16 05:16:00,31.2,20.8,30.61,North,360,17.3,17.3,65,0.00,CLR,,0.00,0.0,WeatherDisplay:10.37,2013-01-16 13:16:00,
2013-01-16 05:21:00,31.1,21.1,30.61,North,360,17.3,17.3,66,0.00,CLR,,0.00,0.0,WeatherDisplay:10.37,2013-01-16 13:21:00,
2013-01-16 05:26:00,31.0,21.0,30.62,North,360,15.0,15.0,66,0.00,CLR,,0.00,0.0,WeatherDisplay:10.37,2013-01-16 13:26:00,
2013-01-16 05:31:00,31.0,21.0,30.61,North,360,16.1,16.1,66,0.00,CLR,,0.00,0.0,WeatherDisplay:10.37,2013-01-16 13:31:00,
2013-01-16 05:36:00,30.9,20.9,30.61,North,360,20.7,20.7,66,0.00,CLR,,0.00,0.0,WeatherDisplay:10.37,2013-01-16 13:36:00,
2013-01-16 05:41:00,30.8,20.8,30.61,North,360,17.3,17.3,66,0.00,CLR,,0.00,0.0,WeatherDisplay:10.37,2013-01-16 13:41:00,
2013-01-16 05:46:00,30.8,20.4,30.61,North,360,19.6,19.6,65,0.00,CLR,,0.00,0.0,WeatherDisplay:10.37,2013-01-16 13:46:00,
2013-01-16 05:51:00,30.7,20.3,30.61,North,360,18.4,18.4,65,0.00,CLR,,0.00,0.0,WeatherDisplay:10.37,2013-01-16 13:51:00,
2013-01-16 05:56:00,30.6,20.2,30.61,North,360,17.3,17.3,65,0.00,CLR,,0.00,0.0,WeatherDisplay:10.37,2013-01-16 13:56:00,
2013-01-16 06:01:00,30.4,20.4,30.61,North,360,16.1,16.1,66,0.00,CLR,,0.00,0.0,WeatherDisplay:10.37,2013-01-16 14:01:00,
2013-01-16 06:06:00,30.2,20.2,30.61,North,360,17.3,17.3,66,0.00,CLR,,0.00,0.0,WeatherDisplay:10.37,2013-01-16 14:06:00,
2013-01-16 06:11:00,30.1,20.1,30.61,North,360,17.3,17.3,66,0.00,CLR,,0.00,0.0,WeatherDisplay:10.37,2013-01-16 14:11:00,
2013-01-16 06:16:00,29.9,20.3,30.61,North,360,19.6,19.6,67,0.00,CLR,,0.00,0.0,WeatherDisplay:10.37,2013-01-16 14:16:00,
2013-01-16 06:21:00,29.8,20.2,30.61,North,360,19.6,19.6,67,0.00,CLR,,0.00,0.0,WeatherDisplay:10.37,2013-01-16 14:21:00,
2013-01-16 06:26:00,29.8,20.2,30.61,North,360,18.4,18.4,67,0.00,CLR,,0.00,0.0,WeatherDisplay:10.37,2013-01-16 14:26:00,
2013-01-16 06:31:00,29.7,20.1,30.61,North,360,15.0,15.0,67,0.00,CLR,,0.00,0.0,WeatherDisplay:10.37,2013-01-16 14:31:00,
2013-01-16 06:36:00,29.7,20.1,30.61,North,360,17.3,17.3,67,0.00,CLR,,0.00,0.0,WeatherDisplay:10.37,2013-01-16 14:36:00,
2013-01-16 06:41:00,29.6,20.0,30.61,North,360,19.6,19.6,67,0.00,CLR,,0.00,0.0,WeatherDisplay:10.37,2013-01-16 14:41:00,
2013-01-16 06:46:00,29.6,20.0,30.61,North,360,19.6,19.6,67,0.00,CLR,,0.00,0.0,WeatherDisplay:10.37,2013-01-16 14:46:00,
2013-01-16 06:51:00,29.4,19.4,30.61,North,360,19.6,19.6,66,0.00,CLR,,0.00,0.0,WeatherDisplay:10.37,2013-01-16 14:51:00,
2013-01-16 06:56:00,29.3,19.3,30.62,North,360,16.1,16.1,66,0.00,CLR,,0.00,0.0,WeatherDisplay:10.37,2013-01-16 14:56:00,
2013-01-16 07:01:00,29.1,19.5,30.62,North,360,24.2,24.2,67,0.00,CLR,,0.00,0.0,WeatherDisplay:10.37,2013-01-16 15:01:00,
2013-01-16 07:06:00,29.0,19.4,30.62,North,360,19.6,19.6,67,0.00,CLR,,0.00,0.0,WeatherDisplay:10.37,2013-01-16 15:06:00,
2013-01-16 07:11:00,29.0,19.4,30.61,North,360,16.1,16.1,67,0.00,CLR,,0.00,0.0,WeatherDisplay:10.37,2013-01-16 15:11:00,
2013-01-16 07:16:00,29.0,19.1,30.62,North,360,23.0,23.0,66,0.00,CLR,,0.00,0.0,WeatherDisplay:10.37,2013-01-16 15:16:00,
2013-01-16 07:21:00,28.9,19.0,30.62,North,360,20.7,20.7,66,0.00,CLR,,0.00,0.0,WeatherDisplay:10.37,2013-01-16 15:21:00,
2013-01-16 07:26:00,28.9,19.0,30.62,North,360,23.0,23.0,66,0.00,CLR,,0.00,0.0,WeatherDisplay:10.37,2013-01-16 15:26:00,
2013-01-16 07:31:00,28.9,19.0,30.62,North,360,18.4,18.4,66,0.00,CLR,,0.00,0.0,WeatherDisplay:10.37,2013-01-16 15:31:00,
2013-01-16 07:36:00,28.7,19.1,30.62,North,360,19.6,19.6,67,0.00,OVC,,0.00,5.0,WeatherDisplay:10.37,2013-01-16 15:36:00,
2013-01-16 07:41:00,28.5,18.9,30.62,North,360,19.6,19.6,67,0.00,CLR,,0.00,7.0,WeatherDisplay:10.37,2013-01-16 15:41:00,
2013-01-16 07:46:00,28.4,18.8,30.63,North,360,21.0,21.0,67,0.00,SCT,,0.00,9.0,WeatherDisplay:10.37,2013-01-16 15:46:00,
2013-01-16 07:51:00,28.5,18.9,30.62,North,360,20.0,20.0,67,0.00,SCT,,0.00,9.0,WeatherDisplay:10.37,2013-01-16 15:51:00,
2013-01-16 07:56:00,28.6,18.7,30.63,North,360,19.6,19.6,66,0.00,SCT,,0.00,12.0,WeatherDisplay:10.37,2013-01-16 15:56:00,
2013-01-16 08:01:00,28.7,18.8,30.63,North,360,16.1,16.1,66,0.00,SCT,,0.00,14.0,WeatherDisplay:10.37,2013-01-16 16:01:00,
2013-01-16 08:06:00,28.7,18.4,30.63,North,360,19.6,19.6,65,0.00,BKN,,0.00,16.0,WeatherDisplay:10.37,2013-01-16 16:06:00,
2013-01-16 08:11:00,28.8,18.1,30.63,North,360,20.0,20.0,64,0.00,BKN,,0.00,16.0,WeatherDisplay:10.37,2013-01-16 16:11:00,
2013-01-16 08:16:00,28.9,18.2,30.63,North,360,20.7,20.7,64,0.00,BKN,,0.00,19.0,WeatherDisplay:10.37,2013-01-16 16:16:00,
2013-01-16 08:21:00,29.1,18.4,30.63,North,360,19.6,19.6,64,0.00,SCT,,0.00,23.0,WeatherDisplay:10.37,2013-01-16 16:21:00,
2013-01-16 08:26:00,29.3,18.3,30.63,North,360,19.6,19.6,63,0.00,SCT,,0.00,32.0,WeatherDisplay:10.37,2013-01-16 16:26:00,
2013-01-16 08:31:00,29.4,18.3,30.63,North,360,20.0,20.0,63,0.00,SCT,,0.00,37.0,WeatherDisplay:10.37,2013-01-16 16:31:00,
2013-01-16 08:36:00,29.5,18.4,30.63,North,360,20.7,20.7,63,0.00,SCT,,0.00,56.0,WeatherDisplay:10.37,2013-01-16 16:36:00,
2013-01-16 08:41:00,29.7,18.6,30.63,North,360,20.7,20.7,63,0.00,SCT,,0.00,67.0,WeatherDisplay:10.37,2013-01-16 16:41:00,
2013-01-16 08:46:00,29.9,18.8,30.63,North,360,18.0,18.0,63,0.00,SCT,,0.00,74.0,WeatherDisplay:10.37,2013-01-16 16:46:00,
2013-01-16 08:51:00,30.2,18.7,30.63,North,360,19.6,19.6,62,0.00,SCT,,0.00,88.0,WeatherDisplay:10.37,2013-01-16 16:51:00,
2013-01-16 08:56:00,30.5,19.0,30.63,North,360,20.0,20.0,62,0.00,SCT,,0.00,88.0,WeatherDisplay:10.37,2013-01-16 16:56:00,
2013-01-16 09:01:00,30.7,18.8,30.63,North,360,17.0,17.0,61,0.00,SCT,,0.00,111.0,WeatherDisplay:10.37,2013-01-16 17:01:00,
2013-01-16 09:06:00,31.0,19.1,30.63,North,360,18.4,18.4,61,0.00,FEW,,0.00,132.0,WeatherDisplay:10.37,2013-01-16 17:06:00,
2013-01-16 09:11:00,31.2,19.3,30.63,North,360,16.1,16.1,61,0.00,FEW,,0.00,141.0,WeatherDisplay:10.37,2013-01-16 17:11:00,
2013-01-16 09:16:00,31.4,19.5,30.63,North,360,18.4,18.4,61,0.00,FEW,,0.00,141.0,WeatherDisplay:10.37,2013-01-16 17:16:00,
2013-01-16 09:21:00,31.8,19.9,30.63,North,360,18.4,18.4,61,0.00,FEW,,0.00,172.0,WeatherDisplay:10.37,2013-01-16 17:21:00,
2013-01-16 09:26:00,32.1,19.8,30.63,North,360,19.6,19.6,60,0.00,CLR,,0.00,172.0,WeatherDisplay:10.37,2013-01-16 17:26:00,
2013-01-16 09:31:00,32.4,20.0,30.63,North,360,16.0,16.0,60,0.00,CLR,,0.00,202.0,WeatherDisplay:10.37,2013-01-16 17:31:00,
2013-01-16 09:36:00,32.7,19.9,30.63,North,360,16.1,16.1,59,0.00,CLR,,0.00,213.0,WeatherDisplay:10.37,2013-01-16 17:36:00,
2013-01-16 09:41:00,33.0,19.8,30.62,North,360,21.9,21.9,58,0.00,CLR,,0.00,225.0,WeatherDisplay:10.37,2013-01-16 17:41:00,
2013-01-16 09:46:00,33.2,20.0,30.63,North,360,21.9,21.9,58,0.00,CLR,,0.00,239.0,WeatherDisplay:10.37,2013-01-16 17:46:00,
2013-01-16 09:51:00,33.5,19.9,30.62,North,360,19.6,19.6,57,0.00,CLR,,0.00,255.0,WeatherDisplay:10.37,2013-01-16 17:51:00,
2013-01-16 09:56:00,33.8,19.7,30.62,North,360,15.0,15.0,56,0.00,CLR,,0.00,257.0,WeatherDisplay:10.37,2013-01-16 17:56:00,
2013-01-16 10:01:00,34.2,20.1,30.62,North,360,17.3,17.3,56,0.00,CLR,,0.00,257.0,WeatherDisplay:10.37,2013-01-16 18:01:00,
2013-01-16 10:06:00,34.5,20.0,30.62,North,360,18.4,18.4,55,0.00,CLR,,0.00,278.0,WeatherDisplay:10.37,2013-01-16 18:06:00,
2013-01-16 10:11:00,34.8,19.8,30.62,North,360,18.4,18.4,54,0.00,CLR,,0.00,297.0,WeatherDisplay:10.37,2013-01-16 18:11:00,
2013-01-16 10:16:00,35.4,19.9,30.62,North,360,19.6,19.6,53,0.00,CLR,,0.00,304.0,WeatherDisplay:10.37,2013-01-16 18:16:00,
2013-01-16 10:21:00,35.9,19.5,30.61,North,360,19.6,19.6,51,0.00,CLR,,0.00,309.0,WeatherDisplay:10.37,2013-01-16 18:21:00,
2013-01-16 10:26:00,36.5,19.6,30.62,North,360,19.0,19.0,50,0.00,CLR,,0.00,325.0,WeatherDisplay:10.37,2013-01-16 18:26:00,
2013-01-16 10:31:00,36.9,20.0,30.62,North,360,18.4,18.4,50,0.00,CLR,,0.00,330.0,WeatherDisplay:10.37,2013-01-16 18:31:00,
2013-01-16 10:36:00,37.4,20.4,30.62,North,360,15.0,15.0,50,0.00,CLR,,0.00,339.0,WeatherDisplay:10.37,2013-01-16 18:36:00,
2013-01-16 10:41:00,37.7,19.8,30.61,North,360,19.6,19.6,48,0.00,CLR,,0.00,345.0,WeatherDisplay:10.37,2013-01-16 18:41:00,
2013-01-16 10:46:00,38.2,19.7,30.61,North,360,17.3,17.3,47,0.00,CLR,,0.00,355.0,WeatherDisplay:10.37,2013-01-16 18:46:00,
2013-01-16 10:51:00,38.7,20.2,30.61,North,360,11.0,11.0,47,0.00,CLR,,0.00,355.0,WeatherDisplay:10.37,2013-01-16 18:51:00,
2013-01-16 10:56:00,39.2,19.6,30.61,North,360,16.1,16.1,45,0.00,CLR,,0.00,369.0,WeatherDisplay:10.37,2013-01-16 18:56:00,
2013-01-16 11:01:00,39.7,20.1,30.61,North,360,13.8,13.8,45,0.00,CLR,,0.00,373.0,WeatherDisplay:10.37,2013-01-16 19:01:00,
2013-01-16 11:06:00,40.2,20.0,30.60,North,360,12.7,12.7,44,0.00,CLR,,0.00,376.0,WeatherDisplay:10.37,2013-01-16 19:06:00,
2013-01-16 11:11:00,40.6,19.8,30.61,North,360,13.8,13.8,43,0.00,CLR,,0.00,385.0,WeatherDisplay:10.37,2013-01-16 19:11:00,
2013-01-16 11:16:00,41.1,19.7,30.60,North,360,13.8,13.8,42,0.00,CLR,,0.00,388.0,WeatherDisplay:10.37,2013-01-16 19:16:00,
2013-01-16 11:21:00,41.6,19.6,30.59,North,360,12.0,12.0,41,0.00,CLR,,0.00,397.0,WeatherDisplay:10.37,2013-01-16 19:21:00,
2013-01-16 11:26:00,42.1,20.1,30.59,North,360,14.0,14.0,41,0.00,CLR,,0.00,397.0,WeatherDisplay:10.37,2013-01-16 19:26:00,
2013-01-16 11:31:00,42.5,19.8,30.59,North,360,15.0,15.0,40,0.00,CLR,,0.00,406.0,WeatherDisplay:10.37,2013-01-16 19:31:00,
2013-01-16 11:36:00,43.0,19.7,30.59,North,360,11.5,11.5,39,0.00,CLR,,0.00,408.0,WeatherDisplay:10.37,2013-01-16 19:36:00,
2013-01-16 11:41:00,43.3,20.0,30.58,North,360,15.0,15.0,39,0.00,CLR,,0.00,410.0,WeatherDisplay:10.37,2013-01-16 19:41:00,
2013-01-16 11:46:00,43.8,19.8,30.58,North,360,11.5,11.5,38,0.00,CLR,,0.00,415.0,WeatherDisplay:10.37,2013-01-16 19:46:00,
2013-01-16 11:51:00,44.3,19.6,30.58,North,360,12.7,12.7,37,0.00,CLR,,0.00,417.0,WeatherDisplay:10.37,2013-01-16 19:51:00,
2013-01-16 11:56:00,44.7,20.0,30.58,North,360,13.0,13.0,37,0.00,CLR,,0.00,420.0,WeatherDisplay:10.37,2013-01-16 19:56:00,
2013-01-16 12:01:00,45.1,19.7,30.58,North,360,13.8,13.8,36,0.00,CLR,,0.00,420.0,WeatherDisplay:10.37,2013-01-16 20:01:00,
2013-01-16 12:06:00,45.4,20.0,30.57,North,360,11.5,11.5,36,0.00,CLR,,0.00,424.0,WeatherDisplay:10.37,2013-01-16 20:06:00,
2013-01-16 12:11:00,45.7,20.2,30.57,North,360,16.1,16.1,36,0.00,CLR,,0.00,424.0,WeatherDisplay:10.37,2013-01-16 20:11:00,
2013-01-16 12:16:00,46.0,20.5,30.57,North,360,11.5,11.5,36,0.00,CLR,,0.00,425.0,WeatherDisplay:10.37,2013-01-16 20:16:00,
2013-01-16 12:21:00,46.3,20.1,30.57,North,360,11.5,11.5,35,0.00,CLR,,0.00,425.0,WeatherDisplay:10.37,2013-01-16 20:21:00,
2013-01-16 12:26:00,46.9,20.6,30.57,North,360,10.4,10.4,35,0.00,CLR,,0.00,425.0,WeatherDisplay:10.37,2013-01-16 20:26:00,
2013-01-16 12:31:00,47.3,21.0,30.56,North,360,11.5,11.5,35,0.00,CLR,,0.00,427.0,WeatherDisplay:10.37,2013-01-16 20:31:00,
2013-01-16 12:36:00,47.7,20.7,30.56,North,360,13.8,13.8,34,0.00,CLR,,0.00,424.0,WeatherDisplay:10.37,2013-01-16 20:36:00,
2013-01-16 12:41:00,48.1,21.0,30.56,North,360,11.5,11.5,34,0.00,CLR,,0.00,424.0,WeatherDisplay:10.37,2013-01-16 20:41:00,
2013-01-16 12:46:00,48.5,21.4,30.55,North,360,11.5,11.5,34,0.00,CLR,,0.00,422.0,WeatherDisplay:10.37,2013-01-16 20:46:00,
2013-01-16 12:51:00,48.9,21.0,30.55,North,360,11.5,11.5,33,0.00,CLR,,0.00,420.0,WeatherDisplay:10.37,2013-01-16 20:51:00,
2013-01-16 12:56:00,49.2,21.3,30.54,North,360,9.2,9.2,33,0.00,CLR,,0.00,420.0,WeatherDisplay:10.37,2013-01-16 20:56:00,
2013-01-16 13:01:00,49.6,21.6,30.55,North,360,6.0,6.0,33,0.00,CLR,,0.00,417.0,WeatherDisplay:10.37,2013-01-16 21:01:00,
2013-01-16 13:06:00,50.1,22.1,30.54,North,360,11.5,11.5,33,0.00,CLR,,0.00,411.0,WeatherDisplay:10.37,2013-01-16 21:06:00,
2013-01-16 13:11:00,50.5,21.7,30.54,North,360,10.4,10.4,32,0.00,CLR,,0.00,408.0,WeatherDisplay:10.37,2013-01-16 21:11:00,
2013-01-16 13:16:00,50.9,22.1,30.54,North,360,11.5,11.5,32,0.00,CLR,,0.00,406.0,WeatherDisplay:10.37,2013-01-16 21:16:00,
2013-01-16 13:21:00,51.3,21.6,30.54,North,360,5.8,5.8,31,0.00,CLR,,0.00,401.0,WeatherDisplay:10.37,2013-01-16 21:21:00,
2013-01-16 13:26:00,51.9,22.2,30.53,North,360,11.5,11.5,31,0.00,CLR,,0.00,399.0,WeatherDisplay:10.37,2013-01-16 21:26:00,
2013-01-16 13:31:00,52.3,20.9,30.53,North,360,6.9,6.9,29,0.00,CLR,,0.00,392.0,WeatherDisplay:10.37,2013-01-16 21:31:00,
2013-01-16 13:36:00,52.6,21.2,30.53,North,360,4.6,4.6,29,0.00,CLR,,0.00,383.0,WeatherDisplay:10.37,2013-01-16 21:36:00,
2013-01-16 13:41:00,52.9,21.5,30.54,North,360,5.8,5.8,29,0.00,CLR,,0.00,380.0,WeatherDisplay:10.37,2013-01-16 21:41:00,
2013-01-16 13:46:00,53.4,21.1,30.54,North,360,3.5,3.5,28,0.00,CLR,,0.00,376.0,WeatherDisplay:10.37,2013-01-16 21:46:00,
2013-01-16 13:51:00,53.7,21.3,30.53,North,360,5.8,5.8,28,0.00,CLR,,0.00,366.0,WeatherDisplay:10.37,2013-01-16 21:51:00,
2013-01-16 13:56:00,54.2,20.9,30.54,North,360,5.0,5.0,27,0.00,CLR,,0.00,359.0,WeatherDisplay:10.37,2013-01-16 21:56:00,
2013-01-16 14:01:00,54.6,21.2,30.53,North,360,3.5,3.5,27,0.00,CLR,,0.00,352.0,WeatherDisplay:10.37,2013-01-16 22:01:00,
2013-01-16 14:06:00,55.0,20.7,30.54,North,360,3.5,3.5,26,0.00,CLR,,0.00,348.0,WeatherDisplay:10.37,2013-01-16 22:06:00,
2013-01-16 14:11:00,55.4,20.1,30.53,North,360,5.0,5.0,25,0.00,CLR,,0.00,338.0,WeatherDisplay:10.37,2013-01-16 22:11:00,
2013-01-16 14:16:00,55.8,19.5,30.54,North,360,4.6,4.6,24,0.00,CLR,,0.00,332.0,WeatherDisplay:10.37,2013-01-16 22:16:00,
2013-01-16 14:21:00,55.9,19.6,30.53,North,360,3.5,3.5,24,0.00,CLR,,0.00,320.0,WeatherDisplay:10.37,2013-01-16 22:21:00,
2013-01-16 14:26:00,56.1,18.8,30.53,North,360,3.5,3.5,23,0.00,CLR,,0.00,313.0,WeatherDisplay:10.37,2013-01-16 22:26:00,
2013-01-16 14:31:00,56.4,19.0,30.53,North,360,4.6,4.6,23,0.00,CLR,,0.00,299.0,WeatherDisplay:10.37,2013-01-16 22:31:00,
2013-01-16 14:36:00,56.7,19.3,30.53,North,360,4.0,4.0,23,0.00,CLR,,0.00,292.0,WeatherDisplay:10.37,2013-01-16 22:36:00,
2013-01-16 14:41:00,56.9,19.4,30.53,North,360,5.0,5.0,23,0.00,CLR,,0.00,278.0,WeatherDisplay:10.37,2013-01-16 22:41:00,
2013-01-16 14:46:00,57.0,26.6,30.53,North,360,3.5,3.5,31,0.00,CLR,,0.00,265.0,WeatherDisplay:10.37,2013-01-16 22:46:00,
2013-01-16 14:51:00,56.3,26.8,30.53,North,360,3.5,3.5,32,0.00,CLR,,0.00,265.0,WeatherDisplay:10.37,2013-01-16 22:51:00,
2013-01-16 14:56:00,55.4,26.7,30.53,North,360,4.6,4.6,33,0.00,CLR,,0.00,243.0,WeatherDisplay:10.37,2013-01-16 22:56:00,
2013-01-16 15:01:00,54.8,26.9,30.52,North,360,5.0,5.0,34,0.00,CLR,,0.00,225.0,WeatherDisplay:10.37,2013-01-16 23:01:00,
2013-01-16 15:06:00,54.5,26.7,30.53,North,360,3.5,3.5,34,0.00,CLR,,0.00,214.0,WeatherDisplay:10.37,2013-01-16 23:06:00,
2013-01-16 15:11:00,54.5,26.7,30.53,North,360,4.0,4.0,34,0.00,CLR,,0.00,204.0,WeatherDisplay:10.37,2013-01-16 23:11:00,
2013-01-16 15:16:00,54.5,27.4,30.52,North,360,3.5,3.5,35,0.00,CLR,,0.00,183.0,WeatherDisplay:10.37,2013-01-16 23:16:00,
2013-01-16 15:21:00,54.7,26.8,30.52,North,360,3.5,3.5,34,0.00,CLR,,0.00,165.0,WeatherDisplay:10.37,2013-01-16 23:21:00,
2013-01-16 15:26:00,55.1,26.5,30.52,North,360,4.0,4.0,33,0.00,CLR,,0.00,162.0,WeatherDisplay:10.37,2013-01-16 23:26:00,
2013-01-16 15:31:00,55.4,26.7,30.53,North,360,3.0,3.0,33,0.00,CLR,,0.00,148.0,WeatherDisplay:10.37,2013-01-16 23:31:00,
2013-01-16 15:36:00,55.5,26.8,30.52,North,360,2.3,2.3,33,0.00,CLR,,0.00,148.0,WeatherDisplay:10.37,2013-01-16 23:36:00,
2013-01-16 15:41:00,55.5,26.8,30.53,North,360,3.5,3.5,33,0.00,CLR,,0.00,114.0,WeatherDisplay:10.37,2013-01-16 23:41:00,
2013-01-16 15:46:00,55.6,26.9,30.52,North,360,2.3,2.3,33,0.00,CLR,,0.00,107.0,WeatherDisplay:10.37,2013-01-16 23:46:00,
2013-01-16 15:51:00,55.7,26.3,30.53,North,360,3.5,3.5,32,0.00,CLR,,0.00,84.0,WeatherDisplay:10.37,2013-01-16 23:51:00,
2013-01-16 15:56:00,55.8,26.3,30.53,North,360,3.0,3.0,32,0.00,FEW,,0.00,81.0,WeatherDisplay:10.37,2013-01-16 23:56:00,
2013-01-16 16:01:00,55.8,26.3,30.52,North,360,0.0,0.0,32,0.00,SCT,,0.00,65.0,WeatherDisplay:10.37,2013-01-17 00:01:00,
2013-01-16 16:06:00,55.7,26.3,30.52,North,360,2.3,2.3,32,0.00,FEW,,0.00,60.0,WeatherDisplay:10.37,2013-01-17 00:06:00,
2013-01-16 16:11:00,55.6,26.9,30.53,North,360,2.0,2.0,33,0.00,SCT,,0.00,47.0,WeatherDisplay:10.37,2013-01-17 00:11:00,
2013-01-16 16:16:00,55.4,26.7,30.52,North,360,1.0,1.0,33,0.00,SCT,,0.00,39.0,WeatherDisplay:10.37,2013-01-17 00:16:00,
2013-01-16 16:21:00,55.3,26.7,30.53,North,360,1.1,1.1,33,0.00,SCT,,0.00,23.0,WeatherDisplay:10.37,2013-01-17 00:21:00,
2013-01-16 16:26:00,55.2,26.6,30.52,North,360,0.0,0.0,33,0.00,SCT,,0.00,19.0,WeatherDisplay:10.37,2013-01-17 00:26:00,
2013-01-16 16:31:00,55.2,26.6,30.52,North,360,0.0,0.0,33,0.00,SCT,,0.00,19.0,WeatherDisplay:10.37,2013-01-17 00:31:00,
2013-01-16 16:36:00,55.1,26.5,30.52,North,360,1.0,0.0,33,0.00,SCT,,0.00,16.0,WeatherDisplay:10.37,2013-01-17 00:36:00,
2013-01-16 16:41:00,54.9,26.3,30.52,North,360,1.1,1.1,33,0.00,CLR,,0.00,16.0,WeatherDisplay:10.37,2013-01-17 00:41:00,
2013-01-16 16:46:00,54.5,26.7,30.52,North,360,0.0,0.0,34,0.00,CLR,,0.00,9.0,WeatherDisplay:10.37,2013-01-17 00:46:00,
2013-01-16 16:51:00,54.2,26.4,30.52,North,360,2.3,2.3,34,0.00,OVC,,0.00,7.0,WeatherDisplay:10.37,2013-01-17 00:51:00,
2013-01-16 16:56:00,53.0,26.0,30.53,North,360,0.0,0.0,35,0.00,CLR,,0.00,5.0,WeatherDisplay:10.37,2013-01-17 00:56:00,
2013-01-16 17:01:00,52.0,26.5,30.52,North,360,1.1,1.1,37,0.00,CLR,,0.00,0.0,WeatherDisplay:10.37,2013-01-17 01:01:00,
2013-01-16 17:06:00,51.0,25.6,30.52,North,360,0.0,0.0,37,0.00,CLR,,0.00,0.0,WeatherDisplay:10.37,2013-01-17 01:06:00,
2013-01-16 17:11:00,50.4,26.3,30.52,North,360,0.0,0.0,39,0.00,CLR,,0.00,0.0,WeatherDisplay:10.37,2013-01-17 01:11:00,
2013-01-16 17:16:00,49.7,25.7,30.52,North,360,0.0,0.0,39,0.00,CLR,,0.00,0.0,WeatherDisplay:10.37,2013-01-17 01:16:00,
2013-01-16 17:21:00,49.1,25.8,30.52,North,360,2.3,2.3,40,0.00,CLR,,0.00,0.0,WeatherDisplay:10.37,2013-01-17 01:21:00,
2013-01-16 17:26:00,48.2,25.6,30.52,North,360,2.3,2.3,41,0.00,CLR,,0.00,0.0,WeatherDisplay:10.37,2013-01-17 01:26:00,
2013-01-16 17:31:00,47.3,25.3,30.52,North,360,1.1,1.1,42,0.00,CLR,,0.00,0.0,WeatherDisplay:10.37,2013-01-17 01:31:00,
2013-01-16 17:36:00,46.7,25.4,30.52,North,360,1.1,1.1,43,0.00,CLR,,0.00,0.0,WeatherDisplay:10.37,2013-01-17 01:36:00,
2013-01-16 17:41:00,46.0,24.7,30.52,North,360,3.5,3.5,43,0.00,CLR,,0.00,0.0,WeatherDisplay:10.37,2013-01-17 01:41:00,
2013-01-16 17:46:00,45.2,24.0,30.51,North,360,3.5,3.5,43,0.00,CLR,,0.00,0.0,WeatherDisplay:10.37,2013-01-17 01:46:00,
2013-01-16 17:51:00,44.6,22.9,30.52,North,360,2.3,2.3,42,0.00,CLR,,0.00,0.0,WeatherDisplay:10.37,2013-01-17 01:51:00,
2013-01-16 17:56:00,44.2,22.0,30.52,North,360,2.3,2.3,41,0.00,CLR,,0.00,0.0,WeatherDisplay:10.37,2013-01-17 01:56:00,
2013-01-16 18:01:00,43.7,20.9,30.52,North,360,3.5,3.5,40,0.00,CLR,,0.00,0.0,WeatherDisplay:10.37,2013-01-17 02:01:00,
2013-01-16 18:06:00,43.4,20.7,30.52,North,360,3.5,3.5,40,0.00,CLR,,0.00,0.0,WeatherDisplay:10.37,2013-01-17 02:06:00,
2013-01-16 18:11:00,43.2,20.5,30.52,North,360,3.5,3.5,40,0.00,CLR,,0.00,0.0,WeatherDisplay:10.37,2013-01-17 02:11:00,
2013-01-16 18:16:00,43.1,21.0,30.52,North,360,0.0,0.0,41,0.00,CLR,,0.00,0.0,WeatherDisplay:10.37,2013-01-17 02:16:00,
2013-01-16 18:21:00,43.0,20.9,30.52,North,360,1.1,1.1,41,0.00,CLR,,0.00,0.0,WeatherDisplay:10.37,2013-01-17 02:21:00,
2013-01-16 18:26:00,42.9,20.8,30.52,North,360,0.0,0.0,41,0.00,CLR,,0.00,0.0,WeatherDisplay:10.37,2013-01-17 02:26:00,
2013-01-16 18:31:00,42.8,20.7,30.52,North,360,0.0,0.0,41,0.00,CLR,,0.00,0.0,WeatherDisplay:10.37,2013-01-17 02:31:00,
2013-01-16 18:36:00,42.7,20.6,30.52,North,360,2.3,2.3,41,0.00,CLR,,0.00,0.0,WeatherDisplay:10.37,2013-01-17 02:36:00,
2013-01-16 18:41:00,42.5,21.0,30.52,North,360,3.5,3.5,42,0.00,CLR,,0.00,0.0,WeatherDisplay:10.37,2013-01-17 02:41:00,
2013-01-16 18:46:00,42.4,20.9,30.52,North,360,2.3,2.3,42,0.00,CLR,,0.00,0.0,WeatherDisplay:10.37,2013-01-17 02:46:00,
2013-01-16 18:51:00,42.3,21.4,30.52,North,360,4.0,4.0,43,0.00,CLR,,0.00,0.0,WeatherDisplay:10.37,2013-01-17 02:51:00,
2013-01-16 18:56:00,42.1,21.2,30.52,North,360,3.5,3.5,43,0.00,CLR,,0.00,0.0,WeatherDisplay:10.37,2013-01-17 02:56:00,
2013-01-16 19:01:00,42.0,21.1,30.52,North,360,3.5,3.5,43,0.00,CLR,,0.00,0.0,WeatherDisplay:10.37,2013-01-17 03:01:00,
2013-01-16 19:06:00,41.8,20.9,30.52,North,360,2.3,2.3,43,0.00,CLR,,0.00,0.0,WeatherDisplay:10.37,2013-01-17 03:06:00,
2013-01-16 19:11:00,41.7,20.8,30.52,North,360,0.0,0.1,43,0.00,CLR,,0.00,0.0,WeatherDisplay:10.37,2013-01-17 03:11:00,
2013-01-16 19:16:00,41.6,21.3,30.52,North,360,3.5,3.5,44,0.00,CLR,,0.00,0.0,WeatherDisplay:10.37,2013-01-17 03:16:00,
2013-01-16 19:21:00,41.3,21.0,30.52,North,360,0.0,0.0,44,0.00,CLR,,0.00,0.0,WeatherDisplay:10.37,2013-01-17 03:21:00,
2013-01-16 19:26:00,41.1,20.8,30.53,North,360,3.5,3.5,44,0.00,CLR,,0.00,0.0,WeatherDisplay:10.37,2013-01-17 03:26:00,
2013-01-16 19:31:00,40.8,21.1,30.52,North,360,3.5,3.5,45,0.00,CLR,,0.00,0.0,WeatherDisplay:10.37,2013-01-17 03:31:00,
2013-01-16 19:36:00,40.6,20.4,30.52,North,360,0.0,0.0,44,0.00,CLR,,0.00,0.0,WeatherDisplay:10.37,2013-01-17 03:36:00,
2013-01-16 19:41:00,40.4,20.7,30.52,North,360,2.3,2.3,45,0.00,CLR,,0.00,0.0,WeatherDisplay:10.37,2013-01-17 03:41:00,
2013-01-16 19:46:00,40.3,20.6,30.52,North,360,1.1,1.1,45,0.00,CLR,,0.00,0.0,WeatherDisplay:10.37,2013-01-17 03:46:00,
2013-01-16 19:51:00,40.2,20.5,30.52,North,360,1.1,1.1,45,0.00,CLR,,0.00,0.0,WeatherDisplay:10.37,2013-01-17 03:51:00,
2013-01-16 19:56:00,40.1,20.4,30.52,North,360,1.1,1.1,45,0.00,CLR,,0.00,0.0,WeatherDisplay:10.37,2013-01-17 03:56:00,
2013-01-16 20:01:00,40.0,20.3,30.53,North,360,3.5,3.5,45,0.00,CLR,,0.00,0.0,WeatherDisplay:10.37,2013-01-17 04:01:00,
2013-01-16 20:06:00,39.9,20.3,30.53,North,360,3.5,3.5,45,0.00,CLR,,0.00,0.0,WeatherDisplay:10.37,2013-01-17 04:06:00,
2013-01-16 20:11:00,39.7,20.1,30.53,North,360,5.0,5.0,45,0.00,CLR,,0.00,0.0,WeatherDisplay:10.37,2013-01-17 04:11:00,
2013-01-16 20:16:00,39.6,20.5,30.53,North,360,3.5,3.5,46,0.00,CLR,,0.00,0.0,WeatherDisplay:10.37,2013-01-17 04:16:00,
2013-01-16 20:21:00,39.3,20.2,30.52,North,360,3.5,3.5,46,0.00,CLR,,0.00,0.0,WeatherDisplay:10.37,2013-01-17 04:21:00,
2013-01-16 20:26:00,39.0,20.5,30.52,North,360,3.5,3.5,47,0.00,CLR,,0.00,0.0,WeatherDisplay:10.37,2013-01-17 04:26:00,
2013-01-16 20:31:00,38.6,20.1,30.52,North,360,3.5,3.5,47,0.00,CLR,,0.00,0.0,WeatherDisplay:10.37,2013-01-17 04:31:00,
2013-01-16 20:36:00,38.3,20.3,30.52,North,360,4.0,4.0,48,0.00,CLR,,0.00,0.0,WeatherDisplay:10.37,2013-01-17 04:36:00,
2013-01-16 20:41:00,37.9,20.4,30.53,North,360,5.0,5.0,49,0.00,CLR,,0.00,0.0,WeatherDisplay:10.37,2013-01-17 04:41:00,
2013-01-16 20:46:00,37.6,20.1,30.52,North,360,4.0,4.0,49,0.00,CLR,,0.00,0.0,WeatherDisplay:10.37,2013-01-17 04:46:00,
2013-01-16 20:51:00,37.4,20.4,30.53,North,360,4.6,4.6,50,0.00,CLR,,0.00,0.0,WeatherDisplay:10.37,2013-01-17 04:51:00,
2013-01-16 20:56:00,37.4,20.4,30.52,North,360,5.0,5.0,50,0.00,CLR,,0.00,0.0,WeatherDisplay:10.37,2013-01-17 04:56:00,
2013-01-16 21:01:00,37.4,20.4,30.52,North,360,3.5,3.5,50,0.00,CLR,,0.00,0.0,WeatherDisplay:10.37,2013-01-17 05:01:00,
2013-01-16 21:02:00,37.4,20.4,30.52,North,360,5.0,5.0,50,0.00,CLR,,0.00,0.0,WeatherDisplay:10.37,2013-01-17 05:02:00,
2013-01-16 21:06:00,37.5,20.5,30.52,North,360,5.8,5.8,50,0.00,CLR,,0.00,0.0,WeatherDisplay:10.37,2013-01-17 05:06:00,
2013-01-16 21:07:00,37.5,20.5,30.52,North,360,5.8,5.8,50,0.00,CLR,,0.00,0.0,WeatherDisplay:10.37,2013-01-17 05:07:00,
2013-01-16 21:12:00,37.5,20.5,30.52,North,360,9.2,9.2,50,0.00,CLR,,0.00,0.0,WeatherDisplay:10.37,2013-01-17 05:12:00,
2013-01-16 21:17:00,37.5,21.0,30.52,North,360,4.6,4.6,51,0.00,CLR,,0.00,0.0,WeatherDisplay:10.37,2013-01-17 05:17:00,
2013-01-16 21:22:00,37.4,20.9,30.52,North,360,9.2,9.2,51,0.00,CLR,,0.00,0.0,WeatherDisplay:10.37,2013-01-17 05:22:00,
2013-01-16 21:27:00,37.3,20.8,30.52,North,360,5.8,5.8,51,0.00,CLR,,0.00,0.0,WeatherDisplay:10.37,2013-01-17 05:27:00,
2013-01-16 21:32:00,37.2,20.7,30.52,North,360,5.8,5.8,51,0.00,CLR,,0.00,0.0,WeatherDisplay:10.37,2013-01-17 05:32:00,
2013-01-16 21:37:00,37.1,20.6,30.52,North,360,8.1,8.1,51,0.00,CLR,,0.00,0.0,WeatherDisplay:10.37,2013-01-17 05:37:00,
2013-01-16 21:42:00,37.0,21.0,30.52,North,360,5.8,5.8,52,0.00,CLR,,0.00,0.0,WeatherDisplay:10.37,2013-01-17 05:42:00,
2013-01-16 21:47:00,37.0,21.0,30.53,North,360,5.8,5.8,52,0.00,CLR,,0.00,0.0,WeatherDisplay:10.37,2013-01-17 05:47:00,
2013-01-16 21:52:00,36.8,20.8,30.52,North,360,6.0,6.0,52,0.00,CLR,,0.00,0.0,WeatherDisplay:10.37,2013-01-17 05:52:00,
2013-01-16 21:57:00,36.7,20.7,30.52,North,360,6.0,6.0,52,0.00,CLR,,0.00,0.0,WeatherDisplay:10.37,2013-01-17 05:57:00,
2013-01-16 22:02:00,36.7,21.2,30.52,North,360,9.0,9.0,53,0.00,CLR,,0.00,0.0,WeatherDisplay:10.37,2013-01-17 06:02:00,
2013-01-16 22:07:00,36.7,21.2,30.52,North,360,7.0,7.0,53,0.00,CLR,,0.00,0.0,WeatherDisplay:10.37,2013-01-17 06:07:00,
2013-01-16 22:12:00,36.6,21.1,30.52,North,360,4.6,4.6,53,0.00,CLR,,0.00,0.0,WeatherDisplay:10.37,2013-01-17 06:12:00,
2013-01-16 22:17:00,36.6,21.1,30.52,North,360,4.0,4.0,53,0.00,CLR,,0.00,0.0,WeatherDisplay:10.37,2013-01-17 06:17:00,
2013-01-16 22:22:00,36.6,21.1,30.53,North,360,6.0,6.0,53,0.00,CLR,,0.00,0.0,WeatherDisplay:10.37,2013-01-17 06:22:00,
2013-01-16 22:27:00,36.7,20.7,30.52,North,360,5.0,5.0,52,0.00,CLR,,0.00,0.0,WeatherDisplay:10.37,2013-01-17 06:27:00,
2013-01-16 22:32:00,36.7,20.7,30.52,North,360,4.6,4.6,52,0.00,CLR,,0.00,0.0,WeatherDisplay:10.37,2013-01-17 06:32:00,
2013-01-16 22:37:00,36.7,20.7,30.53,North,360,4.0,4.0,52,0.00,CLR,,0.00,0.0,WeatherDisplay:10.37,2013-01-17 06:37:00,
2013-01-16 22:42:00,36.7,20.7,30.52,North,360,3.5,3.5,52,0.00,CLR,,0.00,0.0,WeatherDisplay:10.37,2013-01-17 06:42:00,
2013-01-16 22:47:00,36.6,20.6,30.53,North,360,9.2,9.2,52,0.00,CLR,,0.00,0.0,WeatherDisplay:10.37,2013-01-17 06:47:00,
2013-01-16 22:52:00,36.6,20.6,30.53,North,360,3.5,3.5,52,0.00,CLR,,0.00,0.0,WeatherDisplay:10.37,2013-01-17 06:52:00,
2013-01-16 22:57:00,36.5,20.5,30.53,North,360,3.5,3.5,52,0.00,CLR,,0.00,0.0,WeatherDisplay:10.37,2013-01-17 06:57:00,
2013-01-16 23:02:00,36.4,20.9,30.53,North,360,3.5,3.5,53,0.00,CLR,,0.00,0.0,WeatherDisplay:10.37,2013-01-17 07:02:00,
2013-01-16 23:07:00,36.1,21.0,30.53,North,360,3.5,3.5,54,0.00,CLR,,0.00,0.0,WeatherDisplay:10.37,2013-01-17 07:07:00,
2013-01-16 23:12:00,35.7,21.1,30.53,North,360,1.1,0.0,55,0.00,CLR,,0.00,0.0,WeatherDisplay:10.37,2013-01-17 07:12:00,
2013-01-16 23:17:00,35.4,20.8,30.53,North,360,2.3,0.0,55,0.00,CLR,,0.00,0.0,WeatherDisplay:10.37,2013-01-17 07:17:00,
2013-01-16 23:22:00,34.7,21.0,30.53,North,360,2.3,2.3,57,0.00,CLR,,0.00,0.0,WeatherDisplay:10.37,2013-01-17 07:22:00,
2013-01-16 23:27:00,34.0,20.8,30.53,North,360,3.5,3.5,58,0.00,CLR,,0.00,0.0,WeatherDisplay:10.37,2013-01-17 07:27:00,
2013-01-16 23:32:00,33.4,20.6,30.53,North,360,3.5,3.5,59,0.00,CLR,,0.00,0.0,WeatherDisplay:10.37,2013-01-17 07:32:00,
2013-01-16 23:37:00,33.0,20.6,30.53,North,360,2.3,2.3,60,0.00,CLR,,0.00,0.0,WeatherDisplay:10.37,2013-01-17 07:37:00,
2013-01-16 23:42:00,32.7,20.7,30.53,North,360,3.5,3.5,61,0.00,CLR,,0.00,0.0,WeatherDisplay:10.37,2013-01-17 07:42:00,
2013-01-16 23:47:00,32.6,20.6,30.53,North,360,2.3,2.3,61,0.00,CLR,,0.00,0.0,WeatherDisplay:10.37,2013-01-17 07:47:00,
2013-01-16 23:52:00,32.6,20.6,30.53,North,360,4.6,4.6,61,0.00,CLR,,0.00,0.0,WeatherDisplay:10.37,2013-01-17 07:52:00,
2013-01-16 23:57:00,32.7,20.7,30.53,North,360,4.6,4.6,61,0.00,CLR,,0.00,0.0,WeatherDisplay:10.37,2013-01-17 07:57:00,